Time,TemperatureF,DewpointF,PressureIn,WindDirection,WindDirectionDegrees,WindSpeedMPH,WindSpeedGustMPH,Humidity,HourlyPrecipIn,Conditions,Clouds,dailyrainin,SoftwareType,DateUTC
2013-03-17 00:03:00,-999.0,-99.9,29.86,WSW,246,11.0,17.0,-999,-99.99,,,-99.99,,2013-03-17 04:03:00,
2013-03-17 00:13:00,-999.0,-99.9,29.86,WSW,245,10.0,17.0,-999,-99.99,,,-99.99,,2013-03-17 04:13:00,
2013-03-17 00:23:00,57.0,-99.9,29.86,North,-999,-999.0,-999.0,-999,-99.99,,,-99.99,,2013-03-17 04:23:00,
2013-03-17 00:33:00,-999.0,-99.9,29.86,WSW,242,9.0,17.0,-999,-99.99,,,-99.99,,2013-03-17 04:33:00,
2013-03-17 00:43:00,57.0,-99.9,29.86,North,-999,-999.0,-999.0,-999,-99.99,,,-99.99,,2013-03-17 04:43:00,
2013-03-17 00:53:00,-999.0,-99.9,29.86,WSW,244,10.0,16.0,-999,-99.99,,,-99.99,,2013-03-17 04:53:00,
2013-03-17 01:03:00,57.0,-99.9,29.86,North,-999,-999.0,-999.0,-999,-99.99,,,-99.99,,2013-03-17 05:03:00,
2013-03-17 01:12:00,56.0,-99.9,29.86,WSW,245,9.0,13.0,-999,-99.99,,,-99.99,,2013-03-17 05:12:00,
2013-03-17 01:22:00,56.0,-99.9,29.86,North,-999,-999.0,-999.0,-999,-99.99,,,-99.99,,2013-03-17 05:22:00,
2013-03-17 01:32:00,-999.0,-99.9,29.86,WSW,237,7.0,13.0,-999,-99.99,,,-99.99,,2013-03-17 05:32:00,
2013-03-17 01:43:00,56.0,-99.9,29.86,North,-999,-999.0,-999.0,-999,-99.99,,,-99.99,,2013-03-17 05:43:00,
2013-03-17 01:52:00,-999.0,-99.9,29.86,SW,236,8.0,15.0,-999,-99.99,,,-99.99,,2013-03-17 05:52:00,
2013-03-17 02:02:00,56.0,-99.9,29.86,North,-999,-999.0,-999.0,-999,-99.99,,,-99.99,,2013-03-17 06:02:00,
2013-03-17 02:12:00,57.0,-99.9,29.87,WSW,239,9.0,16.0,-999,-99.99,,,-99.99,,2013-03-17 06:12:00,
2013-03-17 02:22:00,-999.0,-99.9,29.87,WSW,240,9.0,18.0,-999,-99.99,,,-99.99,,2013-03-17 06:22:00,
2013-03-17 02:32:00,-999.0,-99.9,29.87,WSW,241,8.0,14.0,-999,-99.99,,,-99.99,,2013-03-17 06:32:00,
2013-03-17 02:42:00,-999.0,-99.9,29.87,WSW,241,7.0,15.0,-999,-99.99,,,-99.99,,2013-03-17 06:42:00,
2013-03-17 02:53:00,-999.0,-99.9,29.87,WSW,241,8.0,16.0,-999,-99.99,,,-99.99,,2013-03-17 06:53:00,
2013-03-17 03:02:00,57.0,-99.9,29.87,North,-999,-999.0,-999.0,-999,-99.99,,,-99.99,,2013-03-17 07:02:00,
2013-03-17 03:12:00,-999.0,-99.9,29.87,WSW,240,9.0,18.0,-999,-99.99,,,-99.99,,2013-03-17 07:12:00,
2013-03-17 03:22:00,-999.0,-99.9,29.87,WSW,242,10.0,16.0,-999,-99.99,,,-99.99,,2013-03-17 07:22:00,
2013-03-17 03:32:00,-999.0,-99.9,29.88,WSW,243,8.0,17.0,-999,-99.99,,,-99.99,,2013-03-17 07:32:00,
2013-03-17 03:42:00,57.0,-99.9,29.88,WSW,250,9.0,17.0,-999,-99.99,,,-99.99,,2013-03-17 07:42:00,
2013-03-17 03:52:00,-999.0,-99.9,29.88,WSW,248,11.0,20.0,-999,-99.99,,,-99.99,,2013-03-17 07:52:00,
2013-03-17 04:03:00,57.0,-99.9,29.88,North,-999,-999.0,-999.0,-999,-99.99,,,-99.99,,2013-03-17 08:03:00,
2013-03-17 04:13:00,57.0,-99.9,29.88,North,-999,-999.0,-999.0,-999,-99.99,,,-99.99,,2013-03-17 08:13:00,
2013-03-17 04:22:00,-999.0,-99.9,29.87,WSW,242,8.0,19.0,-999,-99.99,,,-99.99,,2013-03-17 08:22:00,
2013-03-17 04:33:00,-999.0,-99.9,29.87,WSW,247,11.0,16.0,-999,-99.99,,,-99.99,,2013-03-17 08:33:00,
2013-03-17 04:42:00,56.0,-99.9,29.87,North,-999,-999.0,-999.0,-999,-99.99,,,-99.99,,2013-03-17 08:42:00,
2013-03-17 04:52:00,57.0,-99.9,29.87,North,-999,-999.0,-999.0,-999,-99.99,,,-99.99,,2013-03-17 08:52:00,
2013-03-17 05:03:00,-999.0,-99.9,29.87,WSW,238,6.0,12.0,-999,-99.99,,,-99.99,,2013-03-17 09:03:00,
2013-03-17 05:23:00,-999.0,-99.9,29.87,WSW,241,6.0,10.0,-999,-99.99,,,-99.99,,2013-03-17 09:23:00,
2013-03-17 05:33:00,-999.0,-99.9,29.88,SW,235,5.0,10.0,-999,-99.99,,,-99.99,,2013-03-17 09:33:00,
2013-03-17 05:43:00,55.0,-99.9,29.88,North,-999,-999.0,-999.0,-999,-99.99,,,-99.99,,2013-03-17 09:43:00,
2013-03-17 05:53:00,-999.0,-99.9,29.88,WSW,241,5.0,10.0,-999,-99.99,,,-99.99,,2013-03-17 09:53:00,
2013-03-17 06:03:00,-999.0,-99.9,29.89,WSW,245,5.0,11.0,-999,-99.99,,,-99.99,,2013-03-17 10:03:00,
2013-03-17 06:13:00,55.0,-99.9,29.90,WSW,250,4.0,9.0,-999,-99.99,,,-99.99,,2013-03-17 10:13:00,
2013-03-17 06:23:00,55.0,-99.9,29.90,North,-999,-999.0,-999.0,-999,-99.99,,,-99.99,,2013-03-17 10:23:00,
2013-03-17 06:33:00,55.0,-99.9,29.91,North,-999,-999.0,-999.0,-999,-99.99,,,-99.99,,2013-03-17 10:33:00,
2013-03-17 06:42:00,-999.0,-99.9,29.92,WSW,253,4.0,9.0,-999,-99.99,,,-99.99,,2013-03-17 10:42:00,
2013-03-17 06:53:00,-999.0,-99.9,29.92,WSW,252,3.0,8.0,-999,-99.99,,,-99.99,,2013-03-17 10:53:00,
2013-03-17 07:03:00,55.0,-99.9,29.93,WNW,285,1.0,7.0,-999,-99.99,,,-99.99,,2013-03-17 11:03:00,
2013-03-17 07:12:00,55.0,-99.9,29.95,North,-999,-999.0,-999.0,-999,-99.99,,,-99.99,,2013-03-17 11:12:00,
2013-03-17 07:22:00,55.0,-99.9,29.95,North,-999,-999.0,-999.0,-999,-99.99,,,-99.99,,2013-03-17 11:22:00,
2013-03-17 07:32:00,54.0,-99.9,29.95,North,-999,-999.0,-999.0,-999,-99.99,,,-99.99,,2013-03-17 11:32:00,
2013-03-17 07:43:00,-999.0,-99.9,29.96,SE,127,4.0,4.0,-999,-99.99,,,-99.99,,2013-03-17 11:43:00,
2013-03-17 07:52:00,53.0,-99.9,29.96,North,-999,-999.0,-999.0,-999,-99.99,,,-99.99,,2013-03-17 11:52:00,
2013-03-17 08:02:00,53.0,-99.9,29.97,North,-999,-999.0,-999.0,-999,-99.99,,,-99.99,,2013-03-17 12:02:00,
2013-03-17 08:12:00,54.0,-99.9,29.97,North,-999,-999.0,-999.0,-999,-99.99,,,-99.99,,2013-03-17 12:12:00,
2013-03-17 08:22:00,53.0,-99.9,29.98,North,-999,-999.0,-999.0,-999,-99.99,,,-99.99,,2013-03-17 12:22:00,
2013-03-17 08:33:00,52.0,-99.9,29.98,North,-999,-999.0,-999.0,-999,-99.99,,,-99.99,,2013-03-17 12:33:00,
2013-03-17 08:43:00,52.0,-99.9,29.98,ENE,69,8.0,13.0,-999,-99.99,,,-99.99,,2013-03-17 12:43:00,
2013-03-17 08:52:00,-999.0,-99.9,29.98,NE,52,11.0,15.0,-999,-99.99,,,-99.99,,2013-03-17 12:52:00,
2013-03-17 09:02:00,-999.0,-99.9,29.98,NE,56,9.0,14.0,-999,-99.99,,,-99.99,,2013-03-17 13:02:00,
2013-03-17 09:13:00,52.0,-99.9,29.99,North,-999,-999.0,-999.0,-999,-99.99,,,-99.99,,2013-03-17 13:13:00,
2013-03-17 09:22:00,52.0,-99.9,29.99,North,-999,-999.0,-999.0,-999,-99.99,,,-99.99,,2013-03-17 13:22:00,
2013-03-17 09:33:00,52.0,-99.9,29.99,North,-999,-999.0,-999.0,-999,-99.99,,,-99.99,,2013-03-17 13:33:00,
2013-03-17 09:53:00,-999.0,-99.9,29.99,ENE,63,7.0,13.0,-999,-99.99,,,-99.99,,2013-03-17 13:53:00,
2013-03-17 10:02:00,-999.0,-99.9,30.00,ENE,60,5.0,12.0,-999,-99.99,,,-99.99,,2013-03-17 14:02:00,
2013-03-17 10:23:00,55.0,-99.9,30.01,North,-999,-999.0,-999.0,-999,-99.99,,,-99.99,,2013-03-17 14:23:00,
2013-03-17 10:33:00,56.0,-99.9,30.01,North,-999,-999.0,-999.0,-999,-99.99,,,-99.99,,2013-03-17 14:33:00,
2013-03-17 10:43:00,-999.0,-99.9,30.01,ENE,63,7.0,11.0,-999,-99.99,,,-99.99,,2013-03-17 14:43:00,
2013-03-17 10:53:00,-999.0,-99.9,30.01,East,81,8.0,14.0,-999,-99.99,,,-99.99,,2013-03-17 14:53:00,
2013-03-17 11:02:00,-999.0,-99.9,30.01,ENE,60,9.0,13.0,-999,-99.99,,,-99.99,,2013-03-17 15:02:00,
2013-03-17 11:12:00,56.0,-99.9,30.01,North,-999,-999.0,-999.0,-999,-99.99,,,-99.99,,2013-03-17 15:12:00,
2013-03-17 11:23:00,56.0,-99.9,30.00,North,-999,-999.0,-999.0,-999,-99.99,,,-99.99,,2013-03-17 15:23:00,
2013-03-17 11:33:00,56.0,-99.9,30.01,North,-999,-999.0,-999.0,-999,-99.99,,,-99.99,,2013-03-17 15:33:00,
2013-03-17 11:43:00,-999.0,-99.9,30.02,East,81,11.0,15.0,-999,-99.99,,,-99.99,,2013-03-17 15:43:00,
2013-03-17 11:53:00,56.0,-99.9,30.02,North,-999,-999.0,-999.0,-999,-99.99,,,-99.99,,2013-03-17 15:53:00,
2013-03-17 12:03:00,-999.0,-99.9,30.03,East,91,12.0,16.0,-999,-99.99,,,-99.99,,2013-03-17 16:03:00,
2013-03-17 12:13:00,-999.0,-99.9,30.03,East,79,12.0,16.0,-999,-99.99,,,-99.99,,2013-03-17 16:13:00,
2013-03-17 12:23:00,-999.0,-99.9,30.03,NNE,28,11.0,13.0,-999,-99.99,,,-99.99,,2013-03-17 16:23:00,
2013-03-17 12:34:00,56.0,-99.9,30.03,North,-999,-999.0,-999.0,-999,-99.99,,,-99.99,,2013-03-17 16:34:00,
2013-03-17 12:43:00,-999.0,-99.9,30.03,NE,52,11.0,17.0,-999,-99.99,,,-99.99,,2013-03-17 16:43:00,
2013-03-17 12:53:00,54.0,-99.9,30.03,North,-999,-999.0,-999.0,-999,-99.99,,,-99.99,,2013-03-17 16:53:00,
2013-03-17 13:03:00,53.0,-99.9,30.03,North,-999,-999.0,-999.0,-999,-99.99,,,-99.99,,2013-03-17 17:03:00,
2013-03-17 13:22:00,-999.0,-99.9,30.03,NNE,33,11.0,17.0,-999,-99.99,,,-99.99,,2013-03-17 17:22:00,
2013-03-17 13:33:00,53.0,-99.9,30.03,North,-999,-999.0,-999.0,-999,-99.99,,,-99.99,,2013-03-17 17:33:00,
2013-03-17 13:42:00,54.0,-99.9,30.03,NE,55,10.0,15.0,-999,-99.99,,,-99.99,,2013-03-17 17:42:00,
2013-03-17 13:53:00,54.0,-99.9,30.04,North,-999,-999.0,-999.0,-999,-99.99,,,-99.99,,2013-03-17 17:53:00,
2013-03-17 14:02:00,54.0,-99.9,30.04,North,-999,-999.0,-999.0,-999,-99.99,,,-99.99,,2013-03-17 18:02:00,
2013-03-17 14:13:00,-999.0,-99.9,30.04,NNE,25,12.0,16.0,-999,-99.99,,,-99.99,,2013-03-17 18:13:00,
2013-03-17 14:22:00,53.0,-99.9,30.04,North,-999,-999.0,-999.0,-999,-99.99,,,-99.99,,2013-03-17 18:22:00,
2013-03-17 14:32:00,-999.0,-99.9,30.03,NNE,32,13.0,19.0,-999,-99.99,,,-99.99,,2013-03-17 18:32:00,
2013-03-17 14:52:00,54.0,-99.9,30.03,North,-999,-999.0,-999.0,-999,-99.99,,,-99.99,,2013-03-17 18:52:00,
2013-03-17 15:02:00,-999.0,-99.9,30.03,NE,35,12.0,17.0,-999,-99.99,,,-99.99,,2013-03-17 19:02:00,
2013-03-17 15:12:00,55.0,-99.9,30.02,North,-999,-999.0,-999.0,-999,-99.99,,,-99.99,,2013-03-17 19:12:00,
2013-03-17 15:23:00,55.0,-99.9,30.02,North,-999,-999.0,-999.0,-999,-99.99,,,-99.99,,2013-03-17 19:23:00,
2013-03-17 15:34:00,-999.0,-99.9,30.02,NE,46,11.0,20.0,-999,-99.99,,,-99.99,,2013-03-17 19:34:00,
2013-03-17 15:42:00,-999.0,-99.9,30.01,ENE,58,13.0,17.0,-999,-99.99,,,-99.99,,2013-03-17 19:42:00,
2013-03-17 15:53:00,-999.0,-99.9,30.01,NE,35,13.0,22.0,-999,-99.99,,,-99.99,,2013-03-17 19:53:00,
2013-03-17 16:02:00,-999.0,-99.9,30.01,NE,48,15.0,21.0,-999,-99.99,,,-99.99,,2013-03-17 20:02:00,
2013-03-17 16:12:00,-999.0,-99.9,30.01,NE,43,13.0,22.0,-999,-99.99,,,-99.99,,2013-03-17 20:12:00,
2013-03-17 16:23:00,-999.0,-99.9,30.01,NE,41,16.0,23.0,-999,-99.99,,,-99.99,,2013-03-17 20:23:00,
2013-03-17 16:33:00,-999.0,-99.9,30.01,NE,38,13.0,18.0,-999,-99.99,,,-99.99,,2013-03-17 20:33:00,
2013-03-17 16:43:00,-999.0,-99.9,30.02,NE,43,12.0,21.0,-999,-99.99,,,-99.99,,2013-03-17 20:43:00,
2013-03-17 16:52:00,52.0,-99.9,30.02,North,-999,-999.0,-999.0,-999,-99.99,,,-99.99,,2013-03-17 20:52:00,
2013-03-17 17:03:00,-999.0,-99.9,30.03,NNE,32,14.0,20.0,-999,-99.99,,,-99.99,,2013-03-17 21:03:00,
2013-03-17 17:12:00,-999.0,-99.9,30.03,NE,35,15.0,20.0,-999,-99.99,,,-99.99,,2013-03-17 21:12:00,
2013-03-17 17:23:00,-999.0,-99.9,30.03,NNE,26,15.0,20.0,-999,-99.99,,,-99.99,,2013-03-17 21:23:00,
2013-03-17 17:33:00,51.0,-99.9,30.04,North,-999,-999.0,-999.0,-999,-99.99,,,-99.99,,2013-03-17 21:33:00,
2013-03-17 17:43:00,51.0,-99.9,30.04,NE,38,16.0,20.0,-999,-99.99,,,-99.99,,2013-03-17 21:43:00,
2013-03-17 17:53:00,-999.0,-99.9,30.04,NE,44,16.0,20.0,-999,-99.99,,,-99.99,,2013-03-17 21:53:00,
2013-03-17 18:03:00,50.0,-99.9,30.05,North,-999,-999.0,-999.0,-999,-99.99,,,-99.99,,2013-03-17 22:03:00,
2013-03-17 18:23:00,49.0,-99.9,30.05,North,-999,-999.0,-999.0,-999,-99.99,,,-99.99,,2013-03-17 22:23:00,
2013-03-17 18:33:00,49.0,-99.9,30.06,North,-999,-999.0,-999.0,-999,-99.99,,,-99.99,,2013-03-17 22:33:00,
2013-03-17 18:42:00,-999.0,-99.9,30.06,NE,38,13.0,21.0,-999,-99.99,,,-99.99,,2013-03-17 22:42:00,
2013-03-17 18:53:00,48.0,-99.9,30.07,North,-999,-999.0,-999.0,-999,-99.99,,,-99.99,,2013-03-17 22:53:00,
2013-03-17 19:03:00,48.0,-99.9,30.07,North,-999,-999.0,-999.0,-999,-99.99,,,-99.99,,2013-03-17 23:03:00,
2013-03-17 19:13:00,-999.0,-99.9,30.08,NE,48,12.0,20.0,-999,-99.99,,,-99.99,,2013-03-17 23:13:00,
2013-03-17 19:23:00,48.0,-99.9,30.09,North,-999,-999.0,-999.0,-999,-99.99,,,-99.99,,2013-03-17 23:23:00,
2013-03-17 19:33:00,48.0,-99.9,30.10,North,-999,-999.0,-999.0,-999,-99.99,,,-99.99,,2013-03-17 23:33:00,
2013-03-17 19:43:00,-999.0,-99.9,30.10,NNE,33,12.0,18.0,-999,-99.99,,,-99.99,,2013-03-17 23:43:00,
2013-03-17 19:53:00,-999.0,-99.9,30.11,NE,41,13.0,22.0,-999,-99.99,,,-99.99,,2013-03-17 23:53:00,
2013-03-17 20:04:00,48.0,-99.9,30.11,North,-999,-999.0,-999.0,-999,-99.99,,,-99.99,,2013-03-18 00:04:00,
2013-03-17 20:13:00,-999.0,-99.9,30.11,NNE,33,15.0,25.0,-999,-99.99,,,-99.99,,2013-03-18 00:13:00,
2013-03-17 20:22:00,-999.0,-99.9,30.11,NE,36,11.0,18.0,-999,-99.99,,,-99.99,,2013-03-18 00:22:00,
2013-03-17 20:33:00,-999.0,-99.9,30.12,NNE,33,14.0,18.0,-999,-99.99,,,-99.99,,2013-03-18 00:33:00,
2013-03-17 20:42:00,-999.0,-99.9,30.12,NE,44,14.0,20.0,-999,-99.99,,,-99.99,,2013-03-18 00:42:00,
2013-03-17 20:53:00,-999.0,-99.9,30.12,NE,36,13.0,22.0,-999,-99.99,,,-99.99,,2013-03-18 00:53:00,
2013-03-17 21:02:00,-999.0,-99.9,30.12,NE,34,14.0,23.0,-999,-99.99,,,-99.99,,2013-03-18 01:02:00,
2013-03-17 21:12:00,-999.0,-99.9,30.12,NE,41,12.0,21.0,-999,-99.99,,,-99.99,,2013-03-18 01:12:00,
2013-03-17 21:22:00,-999.0,-99.9,30.12,NE,43,15.0,23.0,-999,-99.99,,,-99.99,,2013-03-18 01:22:00,
2013-03-17 21:33:00,-999.0,-99.9,30.13,NE,46,14.0,23.0,-999,-99.99,,,-99.99,,2013-03-18 01:33:00,
2013-03-17 21:42:00,-999.0,-99.9,30.13,NE,43,16.0,21.0,-999,-99.99,,,-99.99,,2013-03-18 01:42:00,
2013-03-17 21:52:00,-999.0,-99.9,30.13,NE,42,14.0,20.0,-999,-99.99,,,-99.99,,2013-03-18 01:52:00,
2013-03-17 22:02:00,47.0,-99.9,30.13,North,-999,-999.0,-999.0,-999,-99.99,,,-99.99,,2013-03-18 02:02:00,
2013-03-17 22:12:00,-999.0,-99.9,30.14,NE,39,13.0,20.0,-999,-99.99,,,-99.99,,2013-03-18 02:12:00,
2013-03-17 22:22:00,-999.0,-99.9,30.13,NE,46,17.0,24.0,-999,-99.99,,,-99.99,,2013-03-18 02:22:00,
2013-03-17 22:32:00,47.0,-99.9,30.13,North,-999,-999.0,-999.0,-999,-99.99,,,-99.99,,2013-03-18 02:32:00,
2013-03-17 22:42:00,-999.0,-99.9,30.14,NE,40,18.0,27.0,-999,-99.99,,,-99.99,,2013-03-18 02:42:00,
2013-03-17 22:52:00,-999.0,-99.9,30.14,NE,37,11.0,25.0,-999,-99.99,,,-99.99,,2013-03-18 02:52:00,
2013-03-17 23:03:00,48.0,-99.9,30.15,North,-999,-999.0,-999.0,-999,-99.99,,,-99.99,,2013-03-18 03:03:00,
2013-03-17 23:12:00,-999.0,-99.9,30.15,NE,37,15.0,21.0,-999,-99.99,,,-99.99,,2013-03-18 03:12:00,
2013-03-17 23:22:00,48.0,-99.9,30.15,North,-999,-999.0,-999.0,-999,-99.99,,,-99.99,,2013-03-18 03:22:00,
2013-03-17 23:33:00,-999.0,-99.9,30.14,NE,45,13.0,22.0,-999,-99.99,,,-99.99,,2013-03-18 03:33:00,
2013-03-17 23:53:00,-999.0,-99.9,30.14,NE,46,14.0,22.0,-999,-99.99,,,-99.99,,2013-03-18 03:53:00,